Погода Гайны

Хотите узнать прогноз погоды Гайны? Тогда Вам сюда: Погода Гайны

Поиск расширенной информации на нашем сайте:

Полезная информация:

Новости сайта



02.01.2020
Опубликован Долгосрочный прогноз погоды по городам России и ближнего зарубежья на январь 2020 года.
Карты: Прогноз на январь и февраль 2020 года, Сравнение прогнозируемой аномалии приземной температуры воздуха на январь 2020 года по разным моделям.




Погода Гайны - сегодня

Время (UTC), дата Ветер
(°,м/с) 
Видим.   Явления Облачность Т
(°С)
Тd
(°С)
f(%) Тe
(°С)
Pmin
(гПа)
dP
(гПа)
Po
(мм)
O2
(г/м3)
Тmin Tmax R s Состояние
почвы
15 29.11.20 170 (Ю) 20000 м    ясно 
-17.1 -18.3 90 -20  1051.6  0.1  768  332    -15.5       
18 29.11.20 180 (Ю) 20000 м    ясно 
-16.9 -18.2 90 -17  1051.6  768  331           
21 29.11.20 тихо ()   20000 м    ясно 
-19.3 -20.5 90 -19  1052.3  0.5  768  335           
00 30.11.20 200 (Ю) 20000 м    ясно 
-18.7 -19.3 95 -19  1052.1  -0.2  768  334           
03 30.11.20 тихо ()   10 км  слаб. снег  10/10 100 м 
[St]
-17 -18.1 91 -17  1051.6  -0.3  768  332  -20.9    0.0  10  равномерный
сухой снег
100% 
06 30.11.20 140 (ЮВ) 20000 м  {снег}  10/10 300 м 
[Sc]
-14.5 -15.7 91 -15  1051  -0.3  768  328           
09 30.11.20 160 (Ю) 10 км    10/10 50 м 
[St]
-10.8 -11.7 93 -11  1050.5  -0.7  768  323           
12 30.11.20 160 (Ю) 10 км  {снег}  10/10 100 м 
[St]
-6.4 -6.5 99 -6  1023.4  -0.4  767  317           
15 30.11.20 170 (Ю) 10 км  в посл. час снег  10/10 100 м 
[St]
-8.4 -9.5 92 -8  1048.7  -1  767  320    -8.3  0.0     
18 30.11.20 170 (Ю) 20000 м  {снег}  10/10 200 м 
[St]
-7.7 -8.7 93 -9  1047.8  -0.8  766  319           
21 30.11.20 170 (Ю) 20000 м    5/5 200 м 
[St]
-7.8 -8.4 95 -9  1046.6  -1.3  765  318           
00 01.12.20 190 (Ю) 20000 м    10/10 300 м 
[St]
-6.9 -7.4 96 -8  1046.3  -0.2  765  317           
03 01.12.20 190 (Ю) 20000 м    5/5 300 м 
[St]
-5.7 -6.8 92 -8  1045.2  -0.9  764  315  -8.7      10  равномерный
сухой снег
100% 
06 01.12.20 190 (Ю) 20000 м    3/3 300 м 
[St]
-6.5 -7.3 94 -9  1045.1  -0.2  764  316           
09 01.12.20 200 (Ю) 20000 м    1/0 верхняя 
[Cc]
-5.2 -7.3 85 -8  1044.2  -0.8  764  314           
12 01.12.20 200 (Ю) 20000 м    3/3 2000 м средняя 
[Ac lent]
-6 -7.5 89 -9  1044.3  764  315           
15 01.12.20 210 (ЮЗ) 20000 м    4/4 2000 м средняя 
[Ac As]
-6.5 -8.1 88 -10  1043.7  -0.5  763  316    -4.2       
18 01.12.20 200 (Ю) 20000 м    1/1 300 м 
[Sc]
-8.2 -9.2 92 -13  1043.3  -0.5  763  318           
21 01.12.20 210 (ЮЗ) 4{10}  20000 м    ясно 
-9 -9.7 95 -13  1042.5  -0.9  762  319           
00 02.12.20 210 (ЮЗ) 20000 м    10/10 2000 м 
[As trans]
-6.6 -7.1 96 -10  1041.5  -0.7  762  315           
03 02.12.20 230 (ЮЗ) 20000 м    10/10 300 м 
[Sc]
-6.4 -7.2 94 -10  1040.6  -0.9  761  315  -9.2      10  равномерный
сухой снег
100% 
06 02.12.20 220 (ЮЗ) 20000 м    10/10 300 м 
[Sc]
-6.8 -8 91 -10  1040.2  -0.5  761  315           
09 02.12.20 230 (ЮЗ) 10 км  слаб. снег  10/8 300 м средняя 
[Sc|As trans]
-6.6 -7.8 91 -9  1039.9  -0.3  760  315           
12 02.12.20 230 (ЮЗ) 10 км  слаб. снег  10/6 300 м средняя 
[Sc|As op]
-6.9 -8.2 90 -10  1039.3  -0.6  760  315           
15 02.12.20 240 (ЮЗ) 10 км  слаб. снег  10/8 300 м средняя 
[Sc|As op]
-7 -8.3 90 -8  1039.4  0.1  760  315    -5.6  0.3     
Время (UTC), дата Ветер
(°,м/с) 
Видим.   Явления Облачность Т
(°С)
Тd
(°С)
f(%) Тe
(°С)
Pmin
(гПа)
dP
(гПа)
Po
(мм)
O2
(г/м3)
Тmin Tmax R s Состояние
почвы

Для получения пояснительной информации подведите курсор к названию столбца.

ПОГОДА Гайны - архив

Всё, что Вы хотите узнать о погоде Гайны - удобно и подробно!

Выберите нужную дату (начиная с 1 января 2019* года) и нажмите кнопку "Найти".
Будут отображены архивные сводки погоды по пункту Гайны, начиная с указанной даты.


Отображать данные в формате CSV (для использования в таблицах Excel)


Внимание! Наш архив погоды предназначен исключительно для личного некоммерческого использования в познавательных целях. Если Вам необходимы официальные справки о состоянии погоды (для производственных, юридических, коммерческих и т.п. целей), обращайтесь в органы Росгидромета.

*Примечание: данная дата относится к архиву по метеостанциям СССР (Россия, СНГ, Балтия).
Архив по метеостанциям Зарубежной Европы и Азии (кроме Китая) хранится 10 дней, по другим регионам земного шара (Китай, Африка, Америка, Австралия, Океания) - 1 день.

Гайны - район местоположения метеостанции


Название, широта, долгота, высота метеостанции:
Гайны 60.3°ш. 54.3°д. 198 м над ур. моря [Российская Федерация]

Дополнительная информация

В oтличие oт бoльшинства пoгoдных сайтoв мы публикуем пoдрoбную метеoинфoрмацию в детальнoм прoфессиoнальнoм фoрмате.

Характеристики температуры и влажнoсти вoздуха измеряются на высoте 2 м в тени вдали oт зданий и деревьев.
Скoрoсть ветра измеряется на высoте 10 м (на урoвне рoста челoвека скoрoсть ветра ниже в 1.5-2 раза). Если метеoстанция нахoдится в гoрoде или в лесу, тo скoрoсть ветра занижена на 2-4 м/с пo сравнению с oткрытым местoм. Скoрoсть ветра над акватoриями крупных рек и oзёр, а также на вершинах хoлмoв на 2-5 м/с выше, чем в oбычных услoвиях.
Атмoсфернoе давление в разных тoчках местнoсти мoжет значительнo oтличаться oт давления на метеoстанции, в зависимoсти oт услoвий рельефа (при пoдъёме на 10 м давление пoнижается примернo на 1 мм рт.ст.).